{"data":{"norad_id":57789,"epoch":"2026-09-20T21:40:04.250208Z","epoch_age_seconds":113630,"freshness":"FRESH","line1":"1 57789U 23134U   26263.90282697  .00000533  00000+0  28910-4 0  9995","line2":"2 57789  43.0003  55.9141 0001381 276.6586  83.4108 15.27575684170727","mean_motion":15.27575684,"eccentricity":0.0001381,"inclination_deg":43.0003,"raan_deg":55.9141,"arg_perigee_deg":276.6586,"mean_anomaly_deg":83.4108,"bstar":2.891e-5,"rev_number":17072,"period_min":94.267015054162,"perigee_km":482.11448814213,"apogee_km":484.00955131138,"semimajor_km":6861.1990197268,"source":"CELESTRAK","updated_at":"2026-09-21T09:00:33.705933Z"}}